Weather History for Vinton, IA

Change the Weather History Date:

Friday, November 1, 2013

  Actual Average Record
Temperature  
Mean Temperature 46 °F -  
Max Temperature 54 °F 55 °F 75 °F (1950)
Min Temperature 40 °F 37 °F 18 °F (1951)
Degree Days  
Heating Degree Days 19    
Moisture  
Dew Point 38 °F    
Average Humidity 78    
Maximum Humidity 88    
Minimum Humidity 55    
Precipitation  
Precipitation 0.00 in - - ()
Sea Level Pressure  
Sea Level Pressure 29.64 in    
Wind  
Wind Speed 8 mph (WNW)    
Max Wind Speed 17 mph    
Max Gust Speed 22 mph    
Visibility 10 miles    
Events      
Averages and records for this station are not official NWS values.
T = Trace of Precipitation, MM = Missing Value Source: NWS Daily Summary

Daily Weather History Graph

Daily Weather History Graph

Search for Another Location

Airport:

Trip Planner

Search our weather history database for the weather conditions in past years. The results will help you decide how hot, cold, wet, or windy it might be!

Date:

Astronomy

Nov. 01, 2013 Rise Set
Actual Time 7:41 AM CDT 6:01 PM CDT
Civil Twilight 7:12 AM CDT 6:30 PM CDT
Nautical Twilight 6:39 AM CDT 7:03 PM CDT
Astronomical Twilight 6:06 AM CDT 7:36 PM CDT
Moon 5:32 AM CDT (11/1) 4:56 PM CDT (11/1)
Length of Visible Light 11h 18m
Length of Day
10h 19m
Waning Crescent, 4% of the Moon is Illuminated
Nov 1
Waning Crescent
Nov 3
New
Nov 9
First Quarter
Nov 17
Full
Nov 25
Last Quarter

Hourly Weather History & Observations

Time (CDT) Temp. Windchill Dew Point Humidity Pressure Visibility Wind Dir Wind Speed Gust Speed Precip Events Conditions
12:15 AM 41.9 °F 38.2 °F 38.5 °F 88% 29.48 in 7.0 mi West 5.8 mph - N/A   Overcast
12:35 AM 41.9 °F 38.2 °F 38.3 °F 87% 29.47 in 10.0 mi West 5.8 mph - N/A   Overcast
12:55 AM 41.9 °F 37.5 °F 37.6 °F 85% 29.48 in 10.0 mi West 6.9 mph - N/A   Overcast
1:15 AM 41.9 °F 36.9 °F 37.6 °F 85% 29.49 in 10.0 mi WSW 8.1 mph - N/A   Overcast
1:35 AM 41.9 °F 36.9 °F 37.8 °F 85% 29.50 in 10.0 mi WSW 8.1 mph - N/A   Overcast
1:55 AM 41.9 °F 36.9 °F 37.6 °F 85% 29.49 in 10.0 mi WSW 8.1 mph - N/A   Scattered Clouds
2:15 AM 41.9 °F 37.5 °F 37.8 °F 85% 29.50 in 10.0 mi West 6.9 mph - N/A   Mostly Cloudy
2:35 AM 41.9 °F 37.5 °F 37.6 °F 85% 29.50 in 10.0 mi West 6.9 mph - N/A   Overcast
2:55 AM 41.9 °F 35.9 °F 37.4 °F 84% 29.50 in 10.0 mi West 10.4 mph - N/A   Overcast
3:15 AM 41.9 °F 36.3 °F 36.9 °F 82% 29.50 in 10.0 mi West 9.2 mph - N/A   Overcast
3:35 AM 41.9 °F 36.3 °F 36.9 °F 82% 29.50 in 10.0 mi West 9.2 mph - N/A   Overcast
3:55 AM 41.9 °F 36.9 °F 37.0 °F 83% 29.51 in 10.0 mi West 8.1 mph - N/A   Overcast
4:15 AM 41.9 °F 36.9 °F 37.2 °F 83% 29.52 in 10.0 mi West 8.1 mph - N/A   Overcast
4:55 AM 41.9 °F 36.3 °F 37.0 °F 83% 29.52 in 10.0 mi West 9.2 mph - N/A   Overcast
5:15 AM 41.9 °F 36.3 °F 36.9 °F 82% 29.53 in 10.0 mi West 9.2 mph - N/A   Overcast
5:35 AM 41.9 °F 35.4 °F 37.0 °F 83% 29.54 in 10.0 mi West 11.5 mph - N/A   Overcast
5:55 AM 41.9 °F 36.9 °F 36.9 °F 82% 29.55 in 10.0 mi West 8.1 mph - N/A   Mostly Cloudy
6:15 AM 41.9 °F 36.3 °F 37.4 °F 84% 29.56 in 10.0 mi West 9.2 mph - N/A   Clear
6:35 AM 41.5 °F 35.4 °F 36.9 °F 83% 29.56 in 10.0 mi West 10.4 mph - N/A   Scattered Clouds
6:55 AM 41.9 °F 36.3 °F 37.4 °F 84% 29.57 in 10.0 mi West 9.2 mph - N/A   Overcast
7:15 AM 41.9 °F 35.9 °F 37.4 °F 84% 29.57 in 10.0 mi WNW 10.4 mph 16.1 mph N/A   Mostly Cloudy
7:35 AM 41.9 °F 36.3 °F 37.0 °F 83% 29.58 in 10.0 mi WNW 9.2 mph - N/A   Overcast
7:55 AM 41.9 °F 36.3 °F 36.7 °F 82% 29.58 in 10.0 mi WNW 9.2 mph - N/A   Overcast
8:15 AM 41.9 °F 36.3 °F 36.7 °F 82% 29.59 in 10.0 mi WNW 9.2 mph - N/A   Overcast
8:35 AM 41.9 °F 36.9 °F 36.9 °F 82% 29.60 in 10.0 mi WNW 8.1 mph - N/A   Overcast
8:55 AM 42.8 °F 37.0 °F 37.4 °F 81% 29.61 in 10.0 mi WNW 10.4 mph - N/A   Overcast
9:15 AM 42.8 °F 37.0 °F 37.6 °F 82% 29.62 in 10.0 mi WNW 10.4 mph - N/A   Overcast
9:35 AM 43.2 °F 37.4 °F 37.8 °F 81% 29.62 in 10.0 mi WNW 10.4 mph 16.1 mph N/A   Overcast
9:55 AM 43.7 °F 37.3 °F 37.8 °F 80% 29.63 in 10.0 mi WNW 12.7 mph - N/A   Overcast
10:15 AM 44.4 °F 40.0 °F 38.1 °F 79% 29.63 in 10.0 mi WNW 8.1 mph 13.8 mph N/A   Overcast
10:35 AM 44.6 °F 38.4 °F 37.8 °F 77% 29.64 in 10.0 mi WNW 12.7 mph 17.3 mph N/A   Mostly Cloudy
10:55 AM 46.9 °F - 40.1 °F 77% 29.64 in 10.0 mi NW 11.5 mph 16.1 mph N/A   Mostly Cloudy
11:15 AM 46.9 °F - 39.4 °F 75% 29.65 in 10.0 mi WNW 15.0 mph - N/A   Scattered Clouds
11:35 AM 46.9 °F - 39.2 °F 74% 29.66 in 10.0 mi WNW 13.8 mph - N/A   Mostly Cloudy
11:55 AM 46.9 °F - 39.6 °F 76% 29.67 in 10.0 mi WNW 13.8 mph - N/A   Mostly Cloudy
12:15 PM 46.9 °F - 40.6 °F 79% 29.67 in 7.0 mi WNW 10.4 mph - N/A   Drizzle
12:35 PM 46.9 °F - 41.0 °F 80% 29.67 in 7.0 mi West 8.1 mph 11.5 mph N/A   Drizzle
12:55 PM 45.7 °F 40.6 °F 40.5 °F 82% 29.67 in 7.0 mi West 10.4 mph - N/A   Drizzle
1:15 PM 45.0 °F 39.7 °F 40.5 °F 84% 29.67 in 7.0 mi West 10.4 mph - N/A   Light Drizzle
1:35 PM 46.0 °F 40.6 °F 40.5 °F 81% 29.68 in 10.0 mi West 11.5 mph - N/A   Mostly Cloudy
1:55 PM 48.6 °F - 41.0 °F 75% 29.68 in 10.0 mi WNW 17.3 mph 21.9 mph N/A   Mostly Cloudy
2:15 PM 49.5 °F - 39.6 °F 69% 29.67 in 10.0 mi West 10.4 mph 20.7 mph N/A   Mostly Cloudy
2:35 PM 49.5 °F - 38.5 °F 66% 29.68 in 10.0 mi WNW 13.8 mph 18.4 mph N/A   Mostly Cloudy
2:55 PM 49.5 °F - 37.9 °F 65% 29.68 in 10.0 mi WNW 13.8 mph - N/A   Scattered Clouds
3:15 PM 50.7 °F - 38.8 °F 64% 29.68 in 10.0 mi WNW 15.0 mph 19.6 mph N/A   Scattered Clouds
5:15 PM 52.0 °F - 36.1 °F 55% 29.71 in 10.0 mi WNW 10.4 mph 16.1 mph N/A   Clear
5:35 PM 50.9 °F - 35.8 °F 56% 29.72 in 10.0 mi WNW 8.1 mph - N/A   Clear
5:55 PM 49.5 °F - 36.3 °F 61% 29.72 in 10.0 mi West 4.6 mph - N/A   Clear
6:15 PM 49.5 °F - 37.4 °F 63% 29.72 in 10.0 mi WNW 4.6 mph - N/A   Clear
6:35 PM 49.5 °F - 38.7 °F 66% 29.73 in 10.0 mi West 3.5 mph - N/A   Clear
6:55 PM 49.5 °F - 37.9 °F 65% 29.73 in 10.0 mi West 3.5 mph - N/A   Clear
7:15 PM 49.5 °F - 38.1 °F 65% 29.74 in 10.0 mi West 3.5 mph - N/A   Clear
7:35 PM 46.9 °F - 36.9 °F 68% 29.74 in 10.0 mi West 4.6 mph - N/A   Clear
7:55 PM 46.9 °F - 37.4 °F 69% 29.75 in 10.0 mi West 5.8 mph - N/A   Clear
8:15 PM 44.6 °F 41.4 °F 35.8 °F 71% 29.75 in 10.0 mi West 5.8 mph - N/A   Clear
8:35 PM 41.9 °F 39.0 °F 35.4 °F 78% 29.75 in 10.0 mi WNW 4.6 mph - N/A   Clear
8:55 PM 40.6 °F 36.7 °F 34.5 °F 79% 29.76 in 10.0 mi WNW 5.8 mph - N/A   Clear
9:15 PM 40.6 °F 36.7 °F 34.7 °F 79% 29.77 in 10.0 mi WNW 5.8 mph - N/A   Clear
9:35 PM 40.6 °F 36.7 °F 34.9 °F 80% 29.77 in 10.0 mi WNW 5.8 mph - N/A   Clear
9:55 PM 40.6 °F 36.7 °F 35.2 °F 81% 29.78 in 10.0 mi WNW 5.8 mph - N/A   Scattered Clouds
10:15 PM 41.9 °F 39.0 °F 36.0 °F 79% 29.79 in 10.0 mi West 4.6 mph - N/A   Mostly Cloudy
10:35 PM 41.9 °F 40.0 °F 36.5 °F 81% 29.79 in 10.0 mi NW 3.5 mph - N/A   Scattered Clouds
10:55 PM 41.9 °F - 36.5 °F 81% 29.79 in 10.0 mi Calm Calm - N/A   Clear
11:15 PM 41.9 °F 38.2 °F 36.7 °F 82% 29.80 in 10.0 mi WNW 5.8 mph - N/A   Clear
11:35 PM 41.7 °F 38.0 °F 36.5 °F 82% 29.80 in 10.0 mi WNW 5.8 mph - N/A   Clear
11:55 PM 40.6 °F 36.0 °F 35.6 °F 82% 29.81 in 10.0 mi WNW 6.9 mph - N/A   Clear